Stations météo

réclame
Mon MeteoGroup
Kiruna Airport, Suède (2044): Température de l'air & dewpoint: 05.12.2017 07:00:00 - 11.12.2017 07:00:00 (CET)Kiruna Airport, Suède (2044): Vitesse du vent: 05.12.2017 07:00:00 - 11.12.2017 07:00:00 (CET)Kiruna Airport, Suède (2044): Direction du vent: 05.12.2017 07:00:00 - 11.12.2017 07:00:00 (CET)Kiruna Airport, Suède (2044): reduced air pressure: 05.12.2017 07:00:00 - 11.12.2017 07:00:00 (CET)Kiruna Airport, Suède (2044): visibility: 05.12.2017 07:00:00 - 11.12.2017 07:00:00 (CET)
Date & Time tt [°C] td [°C] ff [km/h] ff [knt] dd ppp [hPa] vv [km]
11.12.2017 07:00:00 - - - - - - -
11.12.2017 06:00:00 -5,4 -5,8 0 0 N 996,7 10
11.12.2017 05:00:00 -4,8 -5,1 4 2 - 996,5 10
11.12.2017 04:00:00 -4,6 -4,7 4 2 ENE 996,6 10
11.12.2017 03:00:00 -4,4 -4,7 8 4 ENE 996,7 10
11.12.2017 02:00:00 -4,2 -4,6 8 4 NE 996,5 10
11.12.2017 01:00:00 -3,9 -4,6 4 2 E 996,7 10
11.12.2017 00:00:00 -3,9 -4,6 9 5 ESE 996,8 10
10.12.2017 23:00:00 -3,5 -4,6 8 4 ESE 996,9 10
10.12.2017 22:00:00 -3,4 -4,5 13 7 SE 996,8 10
10.12.2017 21:00:00 -3,1 -4,2 13 7 SE 996,6 10
10.12.2017 20:00:00 -2,9 -3,9 13 7 SE 996,3 10
10.12.2017 19:00:00 -2,5 -3,6 16 9 SE 996,3 10
10.12.2017 18:00:00 -2,1 -3,5 16 9 SE 995,8 5
10.12.2017 17:00:00 -1,9 -3,1 18 10 SE 995,4 7
10.12.2017 16:00:00 -1,7 -2,5 13 7 SE 995,0 4,5
10.12.2017 15:00:00 -1,5 -2,2 15 8 SE 994,5 10
10.12.2017 14:00:00 -1,5 -2,1 13 7 SE 994,2 10
10.12.2017 13:00:00 -1,6 -2,0 15 8 SE 993,5 4,7
10.12.2017 12:00:00 -1,4 -2,0 15 8 SE 993,3 3,6
10.12.2017 11:00:00 -1,5 -1,9 13 7 ESE 993,2 4,3
10.12.2017 10:00:00 -1,8 -2,2 11 6 ESE 993,1 4,4
10.12.2017 09:00:00 -2,2 -2,3 9 5 ESE 992,9 5
10.12.2017 08:00:00 -2,8 -3,1 8 4 E 992,7 2,1
10.12.2017 07:00:00 -3,3 -3,4 4 2 NE 992,6 4,1
10.12.2017 06:00:00 -3,7 -4,1 5 3 ENE 992,5 2,9
10.12.2017 05:00:00 -4,0 -4,1 9 5 E 992,4 9
10.12.2017 04:00:00 -4,4 -4,8 8 4 NE 992,6 3,1
10.12.2017 03:00:00 -4,5 -4,9 9 5 E 992,6 5
10.12.2017 02:00:00 -4,8 -5,2 11 6 ENE 992,5 3,3
10.12.2017 01:00:00 -4,8 -5,2 11 6 ENE 992,5 7
10.12.2017 00:00:00 -4,7 -5,2 11 6 E 992,6 2,7
09.12.2017 23:00:00 -4,7 -5,2 11 6 E 992,6 9
09.12.2017 22:00:00 -4,7 -5,2 15 8 E 992,5 4,2
09.12.2017 21:00:00 -4,7 -5,2 18 10 E 992,3 10
09.12.2017 20:00:00 -4,9 -5,4 16 9 E 992,2 10
09.12.2017 19:00:00 -5,0 -5,5 16 9 E 992,2 10
09.12.2017 18:00:00 -5,1 -5,6 21 11 E 992,0 3,0
09.12.2017 17:00:00 -5,0 -5,5 13 7 E 991,9 1,1
09.12.2017 16:00:00 -5,3 -5,8 18 10 E 991,7 10
09.12.2017 15:00:00 -5,6 -6,1 13 7 E 991,9 1,4
09.12.2017 14:00:00 -5,7 -6,2 13 7 E 991,7 4,2
09.12.2017 13:00:00 -5,9 -6,4 16 9 E 991,5 6
09.12.2017 12:00:00 -6,0 -6,5 11 6 E 991,5 2,1
09.12.2017 11:00:00 -6,0 -6,5 16 9 ENE 991,5 2,7
09.12.2017 10:00:00 -6,0 -6,5 16 9 ENE 991,6 2,6
09.12.2017 09:00:00 -6,0 -6,5 15 8 ENE 991,2 2,5
09.12.2017 08:00:00 -6,0 -6,5 15 8 E 990,9 5
09.12.2017 07:00:00 -6,2 -6,7 18 10 E 990,6 6
09.12.2017 06:00:00 -6,4 -6,9 11 6 ENE 990,5 2,7
09.12.2017 05:00:00 -6,4 -6,9 11 6 E 990,3 7
09.12.2017 04:00:00 -6,8 -7,3 9 5 NNE 990,2 10
09.12.2017 03:00:00 -7,0 -7,5 11 6 NNE 990,4 10
09.12.2017 02:00:00 -7,2 -7,7 13 7 NE 990,2 5
09.12.2017 01:00:00 -7,3 -8,0 15 8 NE 990,1 10
09.12.2017 00:00:00 -7,5 -8,0 15 8 NE 990,0 5
08.12.2017 23:00:00 -7,8 -8,3 11 6 NE 990,1 4,6
08.12.2017 22:00:00 -8,0 -8,7 15 8 NE 989,9 6
08.12.2017 21:00:00 -7,8 -8,5 13 7 NE 989,8 4,0
08.12.2017 20:00:00 -8,1 -8,8 13 7 NE 989,7 5
08.12.2017 19:00:00 -8,2 -8,9 15 8 ENE 989,5 6
08.12.2017 18:00:00 -8,0 -8,8 13 7 ENE 989,1 2,0
08.12.2017 17:00:00 -7,9 -8,6 16 9 E 988,8 6
08.12.2017 16:00:00 -7,6 -8,4 16 9 E 988,8 6
08.12.2017 15:00:00 -7,7 -8,5 15 8 E 988,8 4,5
08.12.2017 14:00:00 -7,5 -8,3 21 11 E 988,3 3,1
08.12.2017 13:00:00 -7,4 -8,2 22 12 E 988,3 3,2
08.12.2017 12:00:00 -7,3 -8,1 22 12 E 988,5 6
08.12.2017 11:00:00 -7,4 -8,2 22 12 E 988,1 2,0
08.12.2017 10:00:00 -7,4 -8,1 28 15 E 988,4 2,7
08.12.2017 09:00:00 -7,5 -8,2 26 14 E 988,1 1,7
08.12.2017 08:00:00 -7,7 -8,4 26 14 E 987,9 2,4
08.12.2017 07:00:00 -8,1 -8,9 24 13 E 988,3 1,5
08.12.2017 06:00:00 -8,3 -9,0 21 11 E 988,9 1,5
08.12.2017 05:00:00 -8,5 -9,6 18 10 E 989,7 4,3
08.12.2017 04:00:00 -9,1 -10,0 18 10 E 990,3 1,6
08.12.2017 03:00:00 -10,1 -11,0 18 10 E 991,0 0,7
08.12.2017 02:00:00 -11,1 -12,1 13 7 E 991,8 1,9
08.12.2017 01:00:00 -11,7 -12,7 13 7 E 993,0 2,5
08.12.2017 00:00:00 -12,9 -14,1 15 8 ESE 994,4 2,6
07.12.2017 23:00:00 -15,1 -16,5 8 4 E 995,7 1,3
07.12.2017 22:00:00 -16,1 -17,6 8 4 NE 996,5 2,2
07.12.2017 21:00:00 -17,0 -18,6 8 4 NNE 998,0 6
07.12.2017 20:00:00 -18,3 -20,1 9 5 NNE 998,9 2,4
07.12.2017 19:00:00 -18,8 -20,6 5 3 ENE 999,8 2,0
07.12.2017 18:00:00 -19,6 -21,5 8 4 ENE 1000,6 3,5
07.12.2017 17:00:00 -19,4 -21,1 5 3 NE 1000,9 2,8
07.12.2017 16:00:00 -19,6 -21,5 5 3 NNE 1001,5 5
07.12.2017 15:00:00 -19,6 -21,5 5 3 NE 1001,9 10
07.12.2017 14:00:00 -20,5 -22,4 4 2 N 1002,7 10
07.12.2017 13:00:00 -20,6 -22,6 2 1 N 1003,0 10
07.12.2017 12:00:00 -19,9 -21,8 4 2 - 1003,3 10
07.12.2017 11:00:00 -19,8 -21,7 5 3 SSW 1003,3 10
07.12.2017 10:00:00 -18,1 -19,9 5 3 SSW 1003,4 10
07.12.2017 09:00:00 -18,3 -19,9 9 5 SW 1003,4 10
07.12.2017 08:00:00 -16,0 -17,3 13 7 SSW 1003,1 10
07.12.2017 07:00:00 -16,4 -17,5 18 10 SSW 1003,2 10
07.12.2017 06:00:00 -14,6 -16,4 16 9 SSW 1003,0 10
07.12.2017 05:00:00 -15,5 -16,8 21 11 SSW 1003,5 10
07.12.2017 04:00:00 -13,7 -15,3 16 9 SW 1003,4 10
07.12.2017 03:00:00 -16,1 -17,8 16 9 SSW 1004,0 10
07.12.2017 02:00:00 -14,7 -16,5 16 9 SW 1004,0 10
07.12.2017 01:00:00 -12,3 -14,0 11 6 SSW 1003,9 10
07.12.2017 00:00:00 -12,8 -14,9 18 10 SW 1003,9 10
06.12.2017 23:00:00 -15,3 -16,4 13 7 SW 1004,3 10
06.12.2017 22:00:00 -15,2 -16,3 15 8 SW 1004,2 10
06.12.2017 21:00:00 -12,8 -13,8 11 6 SSW 1003,7 10
06.12.2017 20:00:00 -13,7 -14,9 13 7 SSW 1003,8 10
06.12.2017 19:00:00 -12,6 -13,5 9 5 SSW 1003,4 10
06.12.2017 18:00:00 -10,9 -11,5 15 8 SW 1003,3 10
06.12.2017 17:00:00 -14,8 -16,5 11 6 SSW 1003,7 10
06.12.2017 16:00:00 -10,7 -11,3 8 4 S 1003,0 10
06.12.2017 15:00:00 -11,5 -12,5 11 6 SSW 1003,0 10
06.12.2017 14:00:00 -12,5 -13,9 13 7 SSW 1003,0 10
06.12.2017 13:00:00 -15,0 -16,7 9 5 SSW 1003,0 10
06.12.2017 12:00:00 -15,0 -16,3 9 5 WNW 1002,6 10
06.12.2017 11:00:00 -14,3 -15,4 5 3 SSW 1002,2 10
06.12.2017 10:00:00 -13,7 -14,7 8 4 S 1002,0 10
06.12.2017 09:00:00 -10,2 -11,1 11 6 SW 1001,1 10
06.12.2017 08:00:00 -9,8 -10,6 11 6 SW 1000,7 10
06.12.2017 07:00:00 -13,0 -14,4 9 5 SSW 1000,7 10
06.12.2017 06:00:00 -10,7 -11,5 8 4 S 1000,1 10
06.12.2017 05:00:00 -11,5 -12,9 11 6 SW 999,9 1,8
06.12.2017 04:00:00 -15,7 -17,2 9 5 WSW 1000,2 10
06.12.2017 03:00:00 -14,1 -14,9 8 4 SSW 999,8 10
06.12.2017 02:00:00 -12,9 -13,9 9 5 SSW 998,9 10
06.12.2017 01:00:00 -13,8 -14,8 4 2 W 998,5 10
06.12.2017 00:00:00 -14,2 -15,2 5 3 - 998,3 10
05.12.2017 23:00:00 -8,0 -8,8 15 8 N 997,0 10
05.12.2017 22:00:00 -7,2 -8,1 9 5 NW 996,2 10
05.12.2017 21:00:00 -7,2 -7,7 5 3 NNE 995,3 10
05.12.2017 20:00:00 -6,4 -7,3 9 5 SW 994,2 2,0
05.12.2017 19:00:00 -7,0 -8,9 11 6 SW 993,8 10
05.12.2017 18:00:00 -7,2 -9,7 16 9 SW 993,4 10
05.12.2017 17:00:00 -7,0 -10,5 16 9 SW 993,3 10
05.12.2017 16:00:00 -6,0 -10,9 13 7 WSW 993,0 10
05.12.2017 15:00:00 -5,7 -9,1 8 4 NW 993,0 10
05.12.2017 14:00:00 -4,7 -8,1 11 6 SW 992,8 10
05.12.2017 13:00:00 -6,3 -9,2 9 5 SW 992,9 10
05.12.2017 12:00:00 -6,4 -9,3 16 9 SSW 992,7 10
05.12.2017 11:00:00 -8,5 -10,6 15 8 SW 992,9 10
05.12.2017 10:00:00 -8,9 -10,8 13 7 WSW 992,9 10
05.12.2017 09:00:00 -7,8 -10,3 24 13 SW 992,2 10
05.12.2017 08:00:00 -7,2 -9,7 22 12 SW 992,4 10
05.12.2017 07:00:00 -6,7 -9,6 22 12 SSW 992,3 10

tt = Température de l'air
td = dewpoint
ff = Vitesse du vent
dd = Direction du vent
ppp = reduced air pressure
vv = visibility

stations d'obs. à proximité